�������l�o���
Date,Time,MP-1(��Sv/h),MP-2(��Sv/h),MP-3(��Sv/h),MP-4(��Sv/h),MP-5(��Sv/h),MP-6(��Sv/h),MP-7(��Sv/h),MP-8(��Sv/h),����,����(m/s),���J
2021/05/19,00:00,0.623,0.905,0.575,1.110,0.785,0.368,0.641,0.602,�k�k��,1.7,��
2021/05/19,00:10,0.623,0.905,0.575,1.109,0.786,0.366,0.641,0.602,�k�k��,1.9,��
2021/05/19,00:20,0.622,0.906,0.575,1.110,0.784,0.366,0.640,0.602,�k�k��,1.5,��
2021/05/19,00:30,0.622,0.904,0.574,1.108,0.786,0.367,0.643,0.600,�k,1.5,��
2021/05/19,00:40,0.622,0.903,0.575,1.109,0.784,0.367,0.640,0.601,�k,1.5,��
2021/05/19,00:50,0.619,0.901,0.574,1.111,0.783,0.366,0.641,0.599,�k,1.9,��
2021/05/19,01:00,0.620,0.904,0.574,1.108,0.785,0.366,0.641,0.602,�k,2.6,��
2021/05/19,01:10,0.621,0.904,0.575,1.113,0.785,0.366,0.641,0.601,�k,3.5,��
2021/05/19,01:20,0.621,0.905,0.575,1.109,0.783,0.365,0.641,0.601,�k,3.2,��
2021/05/19,01:30,0.621,0.902,0.575,1.110,0.785,0.365,0.642,0.602,�k�k��,3.0,�L
2021/05/19,01:40,0.621,0.904,0.575,1.110,0.782,0.365,0.640,0.600,�k�k��,2.2,��
2021/05/19,01:50,0.620,0.904,0.575,1.111,0.785,0.366,0.642,0.600,�k�k��,2.2,��
2021/05/19,02:00,0.620,0.905,0.574,1.111,0.785,0.365,0.640,0.602,�k,2.6,��
2021/05/19,02:10,0.620,0.904,0.575,1.111,0.785,0.366,0.642,0.601,�k�k��,3.2,��
2021/05/19,02:20,0.623,0.904,0.575,1.111,0.786,0.366,0.641,0.602,�k�k��,4.0,��
2021/05/19,02:30,0.621,0.904,0.575,1.109,0.785,0.366,0.643,0.603,�k�k��,3.2,��
2021/05/19,02:40,0.621,0.906,0.574,1.111,0.786,0.367,0.642,0.601,�k�k��,3.3,��
2021/05/19,02:50,0.623,0.906,0.577,1.112,0.784,0.366,0.642,0.601,�k�k��,3.7,��
2021/05/19,03:00,0.622,0.905,0.576,1.112,0.784,0.366,0.643,0.603,�k�k��,3.0,��
2021/05/19,03:10,0.623,0.903,0.576,1.111,0.786,0.366,0.641,0.601,�k�k��,2.6,��
2021/05/19,03:20,0.622,0.907,0.576,1.111,0.787,0.366,0.642,0.603,�k�k��,2.5,��
2021/05/19,03:30,0.622,0.904,0.575,1.112,0.786,0.366,0.641,0.602,�k�k��,2.0,��
2021/05/19,03:40,0.623,0.905,0.575,1.113,0.787,0.366,0.642,0.602,�k�k��,2.2,��
2021/05/19,03:50,0.622,0.905,0.575,1.114,0.786,0.365,0.642,0.602,�k��,1.5,��
2021/05/19,04:00,0.623,0.905,0.575,1.111,0.788,0.367,0.641,0.601,�k�k��,1.5,��
2021/05/19,04:10,0.622,0.904,0.573,1.112,0.787,0.368,0.642,0.602,�k�k��,1.2,��
2021/05/19,04:20,0.622,0.904,0.576,1.111,0.787,0.366,0.643,0.601,�k,0.6,��
2021/05/19,04:30,0.622,0.906,0.575,1.113,0.785,0.366,0.642,0.604,-,CALM,��
2021/05/19,04:40,0.621,0.902,0.575,1.113,0.785,0.368,0.642,0.602,�k��,0.9,��
2021/05/19,04:50,0.621,0.904,0.576,1.114,0.786,0.367,0.641,0.602,�k��,0.9,��
2021/05/19,05:00,0.623,0.905,0.577,1.114,0.786,0.367,0.642,0.601,�k��,0.9,��
2021/05/19,05:10,0.621,0.907,0.574,1.112,0.785,0.365,0.641,0.602,�k��,0.8,��
2021/05/19,05:20,0.623,0.905,0.574,1.114,0.788,0.364,0.641,0.602,�k�k��,0.8,��
2021/05/19,05:30,0.623,0.906,0.576,1.112,0.786,0.366,0.644,0.602,�k�k��,0.8,��
2021/05/19,05:40,0.621,0.904,0.578,1.114,0.786,0.367,0.641,0.602,�k,0.8,��
2021/05/19,05:50,0.623,0.906,0.576,1.112,0.787,0.365,0.643,0.603,�k��,0.6,��
2021/05/19,06:00,0.625,0.907,0.576,1.115,0.787,0.366,0.642,0.602,�k��,0.9,��
2021/05/19,06:10,0.621,0.906,0.574,1.114,0.787,0.367,0.639,0.602,-,CALM,��
2021/05/19,06:20,0.623,0.903,0.576,1.114,0.785,0.367,0.640,0.602,�k��,0.8,��
2021/05/19,06:30,0.624,0.906,0.578,1.112,0.786,0.366,0.641,0.601,-,CALM,��
2021/05/19,06:40,0.622,0.906,0.575,1.112,0.788,0.365,0.643,0.602,�k��,0.6,��
2021/05/19,06:50,0.623,0.907,0.577,1.113,0.788,0.366,0.641,0.602,-,CALM,��
2021/05/19,07:00,0.624,0.908,0.576,1.115,0.787,0.366,0.641,0.601,�k��,1.2,��
2021/05/19,07:10,0.622,0.908,0.575,1.115,0.788,0.366,0.641,0.601,���k��,1.4,��
2021/05/19,07:20,0.624,0.906,0.579,1.113,0.790,0.365,0.643,0.601,�k��,1.5,��
2021/05/19,07:30,0.623,0.907,0.577,1.112,0.788,0.366,0.641,0.599,�k�k��,1.2,��
2021/05/19,07:40,0.622,0.904,0.576,1.113,0.789,0.366,0.642,0.600,�k��,1.4,��
2021/05/19,07:50,0.621,0.904,0.576,1.114,0.787,0.364,0.642,0.600,�k��,1.1,��
2021/05/19,08:00,0.621,0.905,0.577,1.110,0.789,0.366,0.642,0.600,�k,1.5,��
2021/05/19,08:10,0.622,0.905,0.577,1.114,0.788,0.364,0.641,0.601,�k��,1.5,��
2021/05/19,08:20,0.621,0.902,0.576,1.115,0.786,0.365,0.641,0.602,���k��,2.0,��
2021/05/19,08:30,0.622,0.904,0.577,1.114,0.789,0.364,0.641,0.601,�k��,1.7,��
2021/05/19,08:40,0.621,0.903,0.574,1.116,0.786,0.363,0.640,0.600,���k��,2.3,��
2021/05/19,08:50,0.623,0.903,0.573,1.114,0.789,0.365,0.642,0.601,�k�k��,2.5,��
2021/05/19,09:00,0.623,0.904,0.576,1.114,0.787,0.363,0.643,0.600,�k��,1.5,��
2021/05/19,09:10,0.622,0.903,0.576,1.115,0.786,0.365,0.643,0.601,���k��,1.1,��
2021/05/19,09:20,0.623,0.905,0.578,1.117,0.788,0.364,0.644,0.602,��,1.4,��
2021/05/19,09:30,0.623,0.905,0.578,1.116,0.788,0.365,0.643,0.602,�k��,2.6,��
2021/05/19,09:40,0.626,0.905,0.577,1.116,0.787,0.365,0.643,0.599,�k��,2.5,��
2021/05/19,09:50,0.624,0.904,0.575,1.117,0.789,0.365,0.646,0.601,�k��,2.3,��
2021/05/19,10:00,0.624,0.907,0.575,1.117,0.789,0.365,0.646,0.599,���k��,2.3,��
2021/05/19,10:10,0.626,0.910,0.578,1.119,0.792,0.365,0.644,0.602,�k��,2.3,��
2021/05/19,10:20,0.626,0.907,0.577,1.115,0.786,0.367,0.645,0.600,�k��,1.7,��
2021/05/19,10:30,0.625,0.908,0.576,1.117,0.791,0.364,0.645,0.601,���k��,1.7,��
2021/05/19,10:40,0.625,0.909,0.576,1.118,0.790,0.365,0.644,0.601,�k��,2.6,��
2021/05/19,10:50,0.624,0.907,0.576,1.116,0.792,0.366,0.643,0.601,�k��,2.3,��
2021/05/19,11:00,0.624,0.910,0.576,1.116,0.790,0.366,0.644,0.602,�k��,2.0,��
2021/05/19,11:10,0.626,0.907,0.574,1.117,0.788,0.366,0.645,0.601,�k��,3.1,��
2021/05/19,11:20,0.627,0.909,0.575,1.117,0.789,0.366,0.645,0.600,���k��,3.1,��
2021/05/19,11:30,0.624,0.909,0.573,1.117,0.791,0.366,0.643,0.601,�k��,2.3,��
2021/05/19,11:40,0.625,0.909,0.575,1.119,0.790,0.365,0.644,0.601,�k�k��,2.3,��
2021/05/19,11:50,0.626,0.910,0.577,1.117,0.792,0.366,0.644,0.600,�k��,2.6,��
2021/05/19,12:00,0.624,0.912,0.578,1.118,0.791,0.366,0.645,0.602,�k��,2.9,��
2021/05/19,12:10,0.625,0.911,0.578,1.118,0.791,0.366,0.645,0.601,�k�k��,2.5,��
2021/05/19,12:20,0.626,0.913,0.577,1.119,0.790,0.365,0.645,0.602,�k�k��,2.9,��
2021/05/19,12:30,0.626,0.912,0.580,1.121,0.792,0.365,0.645,0.601,�k�k��,3.2,��
2021/05/19,12:40,0.625,0.913,0.577,1.121,0.791,0.367,0.644,0.601,�k�k��,3.3,��
2021/05/19,12:50,0.624,0.911,0.579,1.120,0.791,0.365,0.644,0.603,�k�k��,2.6,��
2021/05/19,13:00,0.626,0.911,0.578,1.117,0.794,0.365,0.644,0.601,�k�k��,3.0,�L
2021/05/19,13:10,0.625,0.912,0.579,1.119,0.793,0.368,0.645,0.602,�k�k��,3.2,�L
2021/05/19,13:20,0.626,0.910,0.580,1.118,0.794,0.367,0.644,0.602,�k�k��,2.9,�L
2021/05/19,13:30,0.626,0.910,0.580,1.118,0.790,0.367,0.644,0.601,�k�k��,2.9,�L
2021/05/19,13:40,0.626,0.909,0.581,1.120,0.792,0.368,0.644,0.602,�k�k��,2.9,�L
2021/05/19,13:50,0.629,0.912,0.581,1.120,0.793,0.369,0.645,0.602,�k,2.6,�L
2021/05/19,14:00,0.628,0.910,0.584,1.120,0.791,0.370,0.643,0.602,�k,2.3,�L
2021/05/19,14:10,0.628,0.909,0.584,1.120,0.793,0.372,0.644,0.601,�k,2.5,�L
2021/05/19,14:20,0.628,0.908,0.583,1.118,0.790,0.372,0.644,0.601,�k�k��,2.6,�L
2021/05/19,14:30,0.629,0.906,0.582,1.119,0.791,0.371,0.644,0.601,�k,2.3,�L
2021/05/19,14:40,0.628,0.906,0.583,1.120,0.789,0.373,0.643,0.601,�k�k��,2.3,�L
2021/05/19,14:50,0.628,0.906,0.584,1.116,0.790,0.372,0.644,0.600,�k,2.6,�L
2021/05/19,15:00,0.627,0.906,0.581,1.118,0.791,0.372,0.644,0.599,�k,2.8,�L
2021/05/19,15:10,0.626,0.908,0.581,1.117,0.789,0.372,0.643,0.601,�k�k��,3.4,�L
2021/05/19,15:20,0.626,0.908,0.581,1.117,0.788,0.372,0.643,0.601,�k�k��,3.8,�L
2021/05/19,15:30,0.628,0.906,0.584,1.118,0.789,0.373,0.642,0.601,�k�k��,3.5,�L
2021/05/19,15:40,0.627,0.904,0.582,1.115,0.788,0.372,0.641,0.601,�k,3.2,�L
2021/05/19,15:50,0.626,0.905,0.580,1.114,0.785,0.371,0.641,0.600,�k,2.8,�L
2021/05/19,16:00,0.626,0.902,0.582,1.115,0.786,0.373,0.641,0.599,�k,3.0,�L
2021/05/19,16:10,0.626,0.900,0.581,1.111,0.784,0.371,0.641,0.599,�k,3.3,�L
2021/05/19,16:20,0.624,0.900,0.580,1.110,0.786,0.372,0.640,0.599,�k,3.2,�L
2021/05/19,16:30,0.626,0.902,0.580,1.112,0.784,0.372,0.641,0.600,�k,3.6,�L
2021/05/19,16:40,0.623,0.903,0.579,1.111,0.782,0.371,0.642,0.598,�k,3.6,�L
2021/05/19,16:50,0.625,0.901,0.577,1.108,0.784,0.371,0.641,0.598,�k,3.8,�L
2021/05/19,17:00,0.624,0.902,0.577,1.108,0.783,0.369,0.640,0.598,�k�k��,4.4,�L
2021/05/19,17:10,0.622,0.903,0.577,1.107,0.784,0.369,0.641,0.599,�k�k��,3.4,�L
2021/05/19,17:20,0.622,0.903,0.577,1.107,0.784,0.370,0.639,0.599,�k�k��,3.5,��
2021/05/19,17:30,0.622,0.902,0.575,1.106,0.782,0.368,0.639,0.601,�k�k��,3.5,��
2021/05/19,17:40,0.621,0.901,0.576,1.109,0.783,0.369,0.641,0.601,�k�k��,3.5,��
2021/05/19,17:50,0.621,0.900,0.573,1.107,0.782,0.366,0.639,0.599,�k�k��,3.8,��
2021/05/19,18:00,0.622,0.901,0.574,1.109,0.783,0.366,0.640,0.600,�k,3.4,��
2021/05/19,18:10,0.619,0.899,0.575,1.105,0.783,0.367,0.639,0.601,�k�k��,3.3,��
2021/05/19,18:20,0.620,0.898,0.574,1.107,0.782,0.367,0.640,0.599,�k�k��,3.3,��
2021/05/19,18:30,0.621,0.900,0.573,1.107,0.781,0.367,0.639,0.600,�k�k��,3.7,��
2021/05/19,18:40,0.620,0.900,0.573,1.108,0.781,0.366,0.637,0.599,�k�k��,3.2,��
2021/05/19,18:50,0.621,0.901,0.574,1.106,0.783,0.366,0.640,0.600,�k�k��,4.1,��
2021/05/19,19:00,0.617,0.903,0.572,1.106,0.783,0.365,0.640,0.599,�k,3.6,��
2021/05/19,19:10,0.618,0.901,0.573,1.108,0.785,0.366,0.640,0.599,�k�k��,4.4,��
2021/05/19,19:20,0.620,0.901,0.574,1.108,0.784,0.366,0.641,0.601,�k,3.4,�L
2021/05/19,19:30,0.621,0.901,0.573,1.108,0.782,0.365,0.641,0.601,�k�k��,3.3,��
2021/05/19,19:40,0.618,0.899,0.575,1.109,0.783,0.367,0.641,0.599,�k�k��,3.0,��
2021/05/19,19:50,0.620,0.902,0.574,1.107,0.783,0.365,0.641,0.601,�k�k��,3.0,��
2021/05/19,20:00,0.618,0.902,0.574,1.108,0.784,0.367,0.640,0.600,�k�k��,3.3,��
2021/05/19,20:10,0.620,0.899,0.573,1.105,0.782,0.366,0.641,0.602,�k�k��,3.8,��
2021/05/19,20:20,0.619,0.900,0.574,1.109,0.782,0.365,0.640,0.601,�k�k��,4.6,��
2021/05/19,20:30,0.620,0.901,0.573,1.105,0.784,0.367,0.642,0.601,�k�k��,4.5,��
2021/05/19,20:40,0.620,0.901,0.576,1.108,0.784,0.367,0.640,0.601,�k�k��,4.3,��
2021/05/19,20:50,0.620,0.902,0.574,1.107,0.784,0.366,0.641,0.601,�k�k��,3.8,��
2021/05/19,21:00,0.619,0.901,0.573,1.110,0.783,0.367,0.641,0.600,�k�k��,3.1,��
2021/05/19,21:10,0.622,0.902,0.573,1.108,0.784,0.364,0.640,0.600,�k�k��,2.3,��
2021/05/19,21:20,0.620,0.901,0.575,1.109,0.783,0.367,0.640,0.601,�k��,0.9,��
2021/05/19,21:30,0.619,0.900,0.573,1.109,0.784,0.366,0.642,0.601,�k��,1.4,��
2021/05/19,21:40,0.620,0.901,0.574,1.109,0.783,0.366,0.641,0.602,�k��,2.2,��
2021/05/19,21:50,0.619,0.902,0.575,1.109,0.784,0.368,0.642,0.602,���k��,1.2,��
2021/05/19,22:00,0.620,0.903,0.575,1.110,0.785,0.366,0.642,0.601,��쓌,0.6,��
2021/05/19,22:10,0.619,0.902,0.575,1.111,0.784,0.365,0.643,0.603,���k��,0.9,��
2021/05/19,22:20,0.621,0.900,0.575,1.111,0.784,0.368,0.643,0.599,���k��,1.2,��
2021/05/19,22:30,0.620,0.904,0.574,1.108,0.785,0.366,0.642,0.602,�k�k��,1.1,��
2021/05/19,22:40,0.621,0.902,0.574,1.109,0.785,0.367,0.642,0.601,�k�k��,2.3,��
2021/05/19,22:50,0.619,0.901,0.574,1.111,0.783,0.367,0.642,0.601,�k,3.7,��
2021/05/19,23:00,0.620,0.903,0.574,1.108,0.786,0.368,0.642,0.601,�k�k��,1.7,��
2021/05/19,23:10,0.620,0.903,0.572,1.110,0.785,0.367,0.641,0.601,�k,1.5,��
2021/05/19,23:20,0.622,0.901,0.575,1.109,0.784,0.367,0.643,0.601,�k�k��,1.9,��
2021/05/19,23:30,0.620,0.903,0.574,1.109,0.784,0.367,0.642,0.601,�k�k��,1.5,��
2021/05/19,23:40,0.621,0.901,0.575,1.111,0.785,0.366,0.642,0.601,���k��,1.5,��
2021/05/19,23:50,0.620,0.902,0.574,1.109,0.786,0.367,0.643,0.599,�k��,0.6,��
